This is the latest recevied weather packets stored in our database for station/object DK8RG-15. If no packets are shown the sender has not sent any weather packets the latest 10 day(s).
| Time | Temp. | Humidity | Pressure | Rain* | Wind** | Luminosity | Snow |
|---|---|---|---|---|---|---|---|
| 1777675820 | 7.78° C | 74% | 1022.2 hPa | 0 mm | - | - | - |
| 1777675221 | 7.78° C | 74% | 1022.2 hPa | 0 mm | - | - | - |
| 1777674621 | 7.78° C | 74% | 1022.2 hPa | 0 mm | - | - | - |
| 1777672831 | 7.78° C | 74% | 1022.1 hPa | 0 mm | - | - | - |
| 1777672215 | 7.78° C | 74% | 1022.1 hPa | 0 mm | - | - | - |
| 1777671615 | 8.33° C | 73% | 1022.1 hPa | 0 mm | - | - | - |
| 1777671015 | 8.33° C | 73% | 1022.2 hPa | 0 mm | - | - | - |
| 1777670415 | 8.33° C | 73% | 1022.2 hPa | 0 mm | - | - | - |
| 1777669815 | 8.89° C | 73% | 1022.1 hPa | 0 mm | - | - | - |
| 1777669214 | 8.89° C | 73% | 1022.1 hPa | 0 mm | - | - | - |
| 1777668614 | 8.89° C | 72% | 1022.1 hPa | 0 mm | - | - | - |
| 1777668014 | 9.44° C | 70% | 1023.1 hPa | 0 mm | - | - | - |
| 1777667415 | 10° C | 70% | 1023.1 hPa | 0 mm | - | - | - |
| 1777666815 | 10° C | 69% | 1022.1 hPa | 0 mm | - | - | - |
| 1777666216 | 10° C | 68% | 1022.1 hPa | 0 mm | - | - | - |
| 1777665615 | 10.56° C | 67% | 1022.1 hPa | 0 mm | - | - | - |
| 1777665015 | 11.67° C | 65% | 1022.2 hPa | 0 mm | - | - | - |
| 1777664415 | 12.22° C | 63% | 1022.3 hPa | 0 mm | - | - | - |
| 1777663814 | 12.78° C | 60% | 1022.3 hPa | 0 mm | - | - | - |
| 1777663215 | 13.89° C | 57% | 1022.3 hPa | 0 mm | - | - | - |
| 1777662614 | 15° C | 53% | 1022.3 hPa | 0 mm | - | - | - |
| 1777662015 | 15.56° C | 50% | 1022.3 hPa | 0 mm | - | - | - |
| 1777661415 | 16.11° C | 49% | 1022.3 hPa | 0 mm | - | - | - |
| 1777660815 | 16.67° C | 47% | 1022.2 hPa | 0 mm | - | - | - |
| 1777660216 | 17.22° C | 45% | 1022.2 hPa | 0 mm | - | - | - |
* Rain latest hour (hover to see other rain measurements)
** Current wind speed in m/s (hover to see current wind gust speed)